[[{"header":{"parameterUnit":"m.s-1","parameterCategory":1,"la1":30.2991,"la2":30.254,"lo1":-89.0895,"lo2":-89.0444,"dy":0.0017,"dx":0.0017,"nx":28,"ny":28,"refTime":"2024-11-28T03:00:00:Z","depth":0,"parameterNumber":2,"parameterNumberName":"U-component_of_WINDS"},"data":[0,0,0,0,0,0,0,0,0,0,0,0,0,0,0,0,0,0,0,0,0,0,0,0,0,0,0,0,0,0,0,0,0,0,0,0,0,0,0,0,0,0,0,0,0,0,0,0,0,0,0,0,0,0,0,0,0,0,-1.6246,-1.6247,0,-1.6315,-1.6316,-1.6316,-1.6269,-1.6267,-1.6264,-1.6262,-1.6334,-1.6338,-1.6341,0,0,0,0,0,0,0,0,0,0,0,0,0,-1.6073,-1.6076,-1.6246,-1.6247,-1.6248,-1.6315,-1.6316,-1.6317,-1.6269,-1.6267,-1.6264,-1.6261,-1.6333,-1.6337,-1.6342,0,0,0,0,0,0,0,0,0,0,0,0,0,-1.6146,-1.6077,-1.6246,-1.6232,-1.6231,-1.6315,-1.6316,-1.6317,-1.627,-1.6266,-1.6263,-1.626,-1.6331,-1.6337,-1.6342,-1.6443,0,0,-1.636,-1.6363,0,0,0,0,0,0,0,0,-1.6141,-1.6152,-1.6233,-1.6233,-1.6233,-1.628,-1.6281,-1.6359,-1.6271,-1.6255,-1.6262,-1.6259,-1.6319,-1.6325,-1.6345,-1.6446,-1.6449,-1.6361,-1.6364,-1.6367,-1.6369,0,0,0,0,0,0,0,-1.6136,-1.6149,-1.6273,-1.6234,-1.6234,-1.6222,-1.6229,-1.6295,-1.6304,-1.6256,-1.6253,-1.6262,-1.6318,-1.634,-1.6347,-1.6451,-1.6361,-1.6366,-1.637,-1.6372,-1.6636,-1.664,0,0,0,0,0,0,-1.6133,-1.6145,-1.6271,-1.6275,-1.6178,-1.6228,-1.6236,-1.6268,-1.6303,-1.6306,-1.6264,-1.6259,-1.6331,-1.634,-1.6349,-1.6469,-1.6367,-1.6372,-1.6376,-1.6633,-1.6637,-1.6641,0,0,0,0,0,0,-1.6129,-1.6144,-1.6268,-1.6209,-1.6224,-1.6234,-1.6271,-1.6271,-1.6293,-1.6309,-1.6311,-1.6285,-1.6329,-1.6341,-1.642,-1.6471,-1.6375,-1.638,-1.6629,-1.6634,-1.6639,-1.671,0,0,0,0,0,0,-1.6124,-1.6143,-1.6182,-1.621,-1.6227,-1.6339,-1.6274,-1.6275,-1.6303,-1.6297,-1.6329,-1.6332,-1.6327,-1.6411,-1.6426,-1.6477,-1.6385,-1.6624,-1.6631,-1.6637,-1.6703,-1.6717,-1.6729,0,0,0,0,0,-1.6118,-1.62,-1.6184,-1.62,-1.6276,-1.6342,-1.6351,-1.6345,-1.6307,-1.6346,-1.6356,-1.6331,-1.6462,-1.642,-1.6435,-1.6489,-1.6621,-1.6629,-1.6637,-1.6697,-1.6714,-1.6728,0,0,0,0,0,0,-1.6178,-1.6203,-1.6187,-1.6279,-1.6309,-1.6333,-1.6382,-1.6363,-1.6403,-1.6396,-1.6386,-1.6394,-1.6476,-1.649,-1.6443,-1.6588,-1.6536,-1.6547,-1.6576,-1.6592,-1.6605,-1.6601,-1.639,0,0,0,0,0,-1.6202,-1.6253,-1.6272,-1.6352,-1.6368,-1.6372,-1.6401,-1.6393,-1.6423,-1.6435,-1.6451,-1.6481,-1.6529,-1.6561,-1.6606,-1.6704,-1.671,-1.6748,-1.6761,-1.6772,-1.6782,-1.6834,-1.6851,-1.6667,-1.6667,-1.6667,0,0,-1.6252,-1.6272,-1.6305,-1.6365,-1.6386,-1.6439,-1.6383,-1.6442,-1.6481,-1.6444,-1.652,-1.6532,-1.6565,-1.6654,-1.6693,-1.6668,-1.6834,-1.6782,-1.679,-1.6795,-1.6844,-1.6861,-1.6877,-1.6672,-1.6671,-1.667,0,0,-1.6371,-1.6391,-1.646,-1.6482,-1.6515,-1.6517,-1.6534,-1.6561,-1.6568,-1.6643,-1.6616,-1.6662,-1.6745,-1.677,-1.6793,-1.6918,-1.6896,-1.6933,-1.7001,-1.7051,-1.7066,-1.7079,-1.7124,-1.714,-1.6943,-1.6943,-1.6943,0,-1.6429,-1.6508,-1.6498,-1.6558,-1.6585,-1.6552,-1.6622,-1.6644,-1.669,-1.6709,-1.668,-1.6782,-1.6802,-1.6895,-1.6926,-1.6945,-1.6964,-1.693,-1.7065,-1.7077,-1.7089,-1.7132,-1.7149,-1.6947,-1.6947,-1.6946,-1.6946,0,-1.6579,-1.6634,-1.6685,-1.673,-1.6762,-1.6827,-1.6826,-1.6859,-1.6848,-1.6853,-1.693,-1.6952,-1.7,-1.7021,-1.7011,-1.7113,-1.7096,-1.7066,-1.7013,-1.7111,-1.7151,-1.7168,-1.6954,-1.6952,-1.6951,-1.695,0,0,-1.674,-1.6776,-1.6795,-1.6815,-1.6848,-1.689,-1.6952,-1.6999,-1.7028,-1.706,-1.7113,-1.7182,-1.7154,-1.718,-1.7172,-1.7216,-1.7314,-1.718,-1.7181,-1.7205,-1.7427,-1.7451,-1.747,-1.7298,-1.7301,-1.7304,-1.7425,0,-1.6861,-1.697,-1.6961,-1.7064,-1.7115,-1.7083,-1.7137,-1.7163,-1.7169,-1.7212,-1.7218,-1.7268,-1.7226,-1.7242,-1.7284,-1.7293,-1.7359,-1.7284,-1.7347,-1.7349,-1.7341,-1.7491,-1.7517,-1.7631,-1.744,-1.7443,-1.7445,0,-1.7018,-1.7055,-1.7163,-1.7187,-1.7207,-1.7257,-1.7298,-1.734,-1.7368,-1.7368,-1.7397,-1.738,-1.7443,-1.7387,-1.7473,-1.7422,-1.7447,-1.7455,-1.7459,-1.7466,-1.7404,-1.7503,-1.7667,-1.7684,-1.7469,-1.7467,-1.7466,0,-1.7125,-1.7202,-1.7276,-1.7293,-1.7323,-1.7358,-1.7372,-1.7397,-1.7425,-1.7461,-1.7479,-1.7522,-1.7546,-1.7579,-1.7574,-1.7534,-1.7661,-1.7605,-1.7664,-1.7664,-1.7694,-1.7692,-1.7864,-1.7708,-1.7707,-1.7707,-1.7707,0,-1.7262,-1.733,-1.7325,-1.7371,-1.7445,-1.7433,-1.7507,-1.7517,-1.7538,-1.7585,-1.756,-1.7604,-1.7594,-1.7639,-1.7635,-1.7706,-1.7717,-1.7719,-1.7718,-1.7722,-1.7722,-1.774,-1.7732,-1.7711,-1.771,-1.771,-1.7709,0,-1.7396,-1.7395,-1.7474,-1.7495,-1.7502,-1.7556,-1.7573,-1.7616,-1.7619,-1.7678,-1.7692,-1.7696,-1.7746,-1.7744,-1.7801,-1.7798,-1.7886,-1.7875,-1.7877,-1.7875,-1.7934,-1.7929,-1.8125,-1.815,-1.7976,-1.7977,-1.7979,0,-1.7485,-1.7536,-1.7561,-1.7591,-1.7607,-1.7655,-1.7683,-1.7672,-1.7703,-1.7737,-1.7776,-1.7824,-1.7862,-1.7943,-1.7951,-1.7994,-1.7985,-1.805,-1.7991,-1.7994,-1.7986,-1.7984,-1.7989,-1.8062,-1.8064,-1.8066,-1.8067,0,-1.7642,-1.7638,-1.768,-1.7721,-1.7756,-1.7788,-1.7817,-1.7842,-1.7835,-1.787,-1.7921,-1.795,-1.8007,-1.8055,-1.8096,-1.811,-1.8088,-1.8085,-1.8101,-1.8107,-1.8107,-1.8108,-1.791,-1.8081,-1.808,-1.8079,-1.8078,-1.8078,-1.7756,-1.78,-1.7824,-1.7871,-1.7892,-1.7919,-1.7961,-1.7968,-1.801,-1.8056,-1.8046,-1.8103,-1.8128,-1.818,-1.8198,-1.8242,-1.8218,-1.8241,-1.8247,-1.8254,-1.8261,-1.8098,-1.8249,-1.8248,-1.8248,-1.8248,-1.8247,0,-1.7913,-1.7926,-1.7969,-1.8011,-1.8047,-1.8022,-1.8052,-1.8085,-1.8135,-1.816,-1.8197,-1.8255,-1.83,-1.8311,-1.8354,-1.8387,-1.8378,-1.8399,-1.8397,-1.8401,-1.8279,-1.8261,-1.8406,-1.8406,-1.8406,-1.8406,-1.8406,-1.8406,-1.7999,-1.8071,-1.807,-1.8152,-1.8164,-1.822,-1.8239,-1.8264,-1.8284,-1.8349,-1.8387,-1.8393,-1.8412,-1.8456,-1.8496,-1.8498,-1.8516,-1.8541,-1.8539,-1.8425,-1.8409,-1.8394,-1.8378,-1.8545,-1.8545,-1.8657,-1.8658,-1.8659]},{"header":{"parameterUnit":"m.s-1","parameterCategory":1,"la1":30.2991,"la2":30.254,"lo1":-89.0895,"lo2":-89.0444,"dy":0.0017,"dx":0.0017,"nx":28,"ny":28,"refTime":"2024-11-28T03:00:00:Z","depth":0,"parameterNumber":3,"parameterNumberName":"V-component_of_WINDS"},"data":[0,0,0,0,0,0,0,0,0,0,0,0,0,0,0,0,0,0,0,0,0,0,0,0,0,0,0,0,0,0,0,0,0,0,0,0,0,0,0,0,0,0,0,0,0,0,0,0,0,0,0,0,0,0,0,0,0,0,-6.9854,-6.9855,0,-7.0006,-7.0007,-7.0009,-6.9917,-6.9912,-6.9908,-6.9904,-7.0054,-7.0062,-7.007,0,0,0,0,0,0,0,0,0,0,0,0,0,-6.9477,-6.9484,-6.9853,-6.9855,-6.9857,-7.0005,-7.0007,-7.0009,-6.9917,-6.9912,-6.9907,-6.9902,-7.0051,-7.0061,-7.007,0,0,0,0,0,0,0,0,0,0,0,0,0,-6.9636,-6.9487,-6.9853,-6.9829,-6.9829,-7.0005,-7.0007,-7.001,-6.9918,-6.9912,-6.9905,-6.9899,-7.0048,-7.006,-7.0072,-7.0278,0,0,-7.0109,-7.0114,0,0,0,0,0,0,0,0,-6.9627,-6.965,-6.9831,-6.9831,-6.9831,-6.9935,-6.993,-7.01,-6.992,-6.9884,-6.9903,-6.9896,-7.0019,-7.0033,-7.0076,-7.0285,-7.0292,-7.011,-7.0117,-7.0123,-7.0126,0,0,0,0,0,0,0,-6.9616,-6.9642,-6.9913,-6.9834,-6.9834,-6.9809,-6.9824,-6.9961,-6.9987,-6.9887,-6.988,-6.99,-7.0018,-7.0065,-7.0079,-7.0294,-7.011,-7.012,-7.0128,-7.0133,-7.0678,-7.0685,0,0,0,0,0,0,-6.9607,-6.9634,-6.9909,-6.9918,-6.9711,-6.9821,-6.9838,-6.9908,-6.9985,-6.999,-6.9905,-6.9895,-7.0047,-7.0065,-7.0084,-7.033,-7.0122,-7.0134,-7.0141,-7.0671,-7.068,-7.0687,0,0,0,0,0,0,-6.96,-6.9633,-6.9902,-6.9774,-6.9807,-6.9834,-6.9914,-6.9915,-6.9962,-6.9999,-7.0003,-6.9949,-7.0043,-7.0067,-7.0231,-7.0334,-7.0139,-7.015,-7.0662,-7.0674,-7.0684,-7.0825,0,0,0,0,0,0,-6.9589,-6.9631,-6.9711,-6.9777,-6.9814,-7.0049,-6.9921,-6.9923,-6.9983,-6.9971,-7.0041,-7.0046,-7.004,-7.0213,-7.0243,-7.0347,-7.016,-7.0653,-7.0667,-7.068,-7.0811,-7.0839,-7.0863,0,0,0,0,0,-6.9576,-6.9744,-6.9716,-6.9749,-6.9916,-7.0055,-7.0076,-7.0067,-6.9992,-7.0072,-7.0096,-7.0044,-7.0318,-7.0231,-7.0263,-7.0373,-7.0647,-7.0663,-7.0679,-7.0799,-7.0833,-7.0862,0,0,0,0,0,0,-6.9688,-6.9752,-6.9722,-6.9916,-6.9981,-7.004,-7.014,-7.0104,-7.019,-7.0175,-7.0157,-7.0174,-7.0345,-7.0375,-7.0277,-7.0576,-7.047,-7.0494,-7.055,-7.0583,-7.0609,-7.0598,-7.017,0,0,0,0,0,-6.9736,-6.9846,-6.9895,-7.0062,-7.0096,-7.0113,-7.0173,-7.0161,-7.0226,-7.0253,-7.0289,-7.0353,-7.0453,-7.052,-7.0614,-7.0814,-7.0827,-7.0906,-7.0932,-7.0953,-7.0973,-7.108,-7.1115,-7.0741,-7.0741,-7.074,0,0,-6.9835,-6.9883,-6.9954,-7.0085,-7.0134,-7.0247,-7.0137,-7.026,-7.0343,-7.0271,-7.0428,-7.0457,-7.0527,-7.071,-7.0792,-7.074,-7.1079,-7.0973,-7.099,-7.0999,-7.11,-7.1136,-7.1167,-7.0752,-7.075,-7.0748,0,0,-7.0073,-7.0121,-7.0265,-7.0316,-7.0392,-7.0402,-7.0437,-7.0501,-7.0517,-7.0675,-7.0623,-7.0719,-7.0893,-7.0945,-7.0994,-7.125,-7.1205,-7.1281,-7.1417,-7.1522,-7.1551,-7.1577,-7.1668,-7.17,-7.1302,-7.1302,-7.1302,0,-7.0186,-7.0355,-7.0343,-7.0471,-7.053,-7.0471,-7.0615,-7.0665,-7.0767,-7.0808,-7.0749,-7.0965,-7.1008,-7.1201,-7.1264,-7.1306,-7.1343,-7.1274,-7.1548,-7.1574,-7.1598,-7.1684,-7.1718,-7.1311,-7.131,-7.1309,-7.1308,0,-7.049,-7.0608,-7.0714,-7.0816,-7.0887,-7.1022,-7.1029,-7.1101,-7.1081,-7.1097,-7.1257,-7.1307,-7.141,-7.1454,-7.1436,-7.1645,-7.161,-7.155,-7.1444,-7.1643,-7.1723,-7.1756,-7.1323,-7.132,-7.1318,-7.1315,0,0,-7.0804,-7.0897,-7.0936,-7.0981,-7.106,-7.1149,-7.1281,-7.1383,-7.1445,-7.1517,-7.1626,-7.1773,-7.1718,-7.1774,-7.176,-7.1852,-7.205,-7.178,-7.1781,-7.1828,-7.2282,-7.2327,-7.2365,-7.202,-7.2027,-7.2032,-7.2276,0,-7.1046,-7.1278,-7.127,-7.1486,-7.1594,-7.1539,-7.1653,-7.1712,-7.173,-7.1822,-7.184,-7.1945,-7.1864,-7.1897,-7.1985,-7.2008,-7.2141,-7.199,-7.212,-7.2124,-7.2104,-7.2408,-7.2456,-7.2684,-7.2307,-7.2313,-7.2316,0,-7.136,-7.1444,-7.1671,-7.1733,-7.1778,-7.1881,-7.1973,-7.2063,-7.2128,-7.2134,-7.2196,-7.2168,-7.2298,-7.2188,-7.2367,-7.2265,-7.2317,-7.2335,-7.2344,-7.2356,-7.2233,-7.2427,-7.2757,-7.2791,-7.2366,-7.2362,-7.2358,0,-7.1566,-7.1735,-7.1893,-7.1933,-7.2009,-7.2082,-7.2117,-7.2176,-7.2237,-7.2317,-7.2356,-7.245,-7.2501,-7.2573,-7.2569,-7.249,-7.275,-7.264,-7.2758,-7.2758,-7.2815,-7.2812,-7.3158,-7.285,-7.2849,-7.2848,-7.2848,0,-7.1837,-7.1978,-7.1986,-7.2083,-7.2238,-7.2226,-7.238,-7.2406,-7.2459,-7.2558,-7.2515,-7.2609,-7.2599,-7.2693,-7.269,-7.2838,-7.2861,-7.2868,-7.2866,-7.2873,-7.2872,-7.2907,-7.289,-7.2857,-7.2855,-7.2854,-7.2852,0,-7.2093,-7.2105,-7.2272,-7.2331,-7.2348,-7.246,-7.2509,-7.2599,-7.2613,-7.2739,-7.2767,-7.2788,-7.2896,-7.2899,-7.3023,-7.3021,-7.3201,-7.3181,-7.318,-7.3176,-7.3293,-7.3282,-7.3673,-7.3724,-7.3383,-7.3386,-7.3389,0,-7.2266,-7.2373,-7.2443,-7.2508,-7.2547,-7.2651,-7.2714,-7.2706,-7.2772,-7.2854,-7.2934,-7.3038,-7.3121,-7.3296,-7.332,-7.3414,-7.3395,-7.3526,-7.3409,-7.3412,-7.3397,-7.339,-7.34,-7.3549,-7.3553,-7.3556,-7.3558,0,-7.2571,-7.2571,-7.2664,-7.276,-7.2836,-7.291,-7.2979,-7.3034,-7.3033,-7.3109,-7.322,-7.3285,-7.3411,-7.3514,-7.3605,-7.3638,-7.3598,-7.3595,-7.3627,-7.3635,-7.3629,-7.3633,-7.3242,-7.3586,-7.3583,-7.3581,-7.358,-7.3579,-7.279,-7.2883,-7.2946,-7.3051,-7.3102,-7.3167,-7.3255,-7.3279,-7.3372,-7.3476,-7.3464,-7.3587,-7.3647,-7.3765,-7.3806,-7.39,-7.3854,-7.3901,-7.3913,-7.3924,-7.3937,-7.3615,-7.3916,-7.3915,-7.3915,-7.3914,-7.3913,0,-7.3093,-7.3131,-7.3227,-7.3325,-7.3407,-7.3364,-7.3437,-7.3508,-7.3617,-7.3678,-7.376,-7.3887,-7.3986,-7.4018,-7.4114,-7.4183,-7.4167,-7.4209,-7.4203,-7.4211,-7.3972,-7.3935,-7.422,-7.422,-7.422,-7.422,-7.422,-7.422,-7.326,-7.3413,-7.3421,-7.3598,-7.3634,-7.3756,-7.3801,-7.386,-7.3908,-7.4052,-7.4135,-7.4156,-7.4204,-7.4303,-7.4391,-7.4398,-7.4435,-7.4484,-7.4483,-7.4259,-7.4228,-7.4199,-7.4164,-7.4492,-7.4493,-7.4714,-7.4716,-7.4718]}]]